When you browse on this site, cookies collect data to enhance your experience and personalize the content and advertising you see.
Visit our Privacy Policy to learn more. By continuing to use the site, you agree to this use of cookies and data.
  • en France
  • Liste des pays
  • À 7 jours
  • Température de l'eau
  • Carte météo
  • Widgets météo
  • user-avatar
    Se connecter

    Météo par heure à Streleckiy

    Ce jour, 15 Octobre, Mardi

    Heure Température Précipitation Vent Pression Humidité
    00:00 +13°C° 0 mm 6 m/s 742 mmHg 73%
    01:00 +13°C° 0 mm 5 m/s 742 mmHg 76%
    02:00 +13°C° 0 mm 5 m/s 742 mmHg 78%
    03:00 +12°C° 0 mm 5 m/s 742 mmHg 82%
    04:00 +12°C° 0 mm 4 m/s 742 mmHg 87%
    05:00 +11°C° 0 mm 4 m/s 742 mmHg 91%
    06:00 +12°C° 0 mm 4 m/s 743 mmHg 90%
    07:00 +12°C° 0 mm 4 m/s 743 mmHg 88%
    08:00 +12°C° 0 mm 5 m/s 744 mmHg 87%
    09:00 +13°C° 0 mm 4 m/s 744 mmHg 81%
    10:00 +14°C° 0 mm 4 m/s 744 mmHg 76%
    11:00 +14°C° 0 mm 3 m/s 745 mmHg 71%
    12:00 +14°C° 0 mm 3 m/s 745 mmHg 70%
    13:00 +14°C° 0 mm 3 m/s 745 mmHg 70%
    14:00 +14°C° 0 mm 3 m/s 746 mmHg 69%
    15:00 +13°C° 0 mm 3 m/s 746 mmHg 73%
    16:00 +13°C° 0 mm 2 m/s 746 mmHg 77%
    17:00 +12°C° 0 mm 2 m/s 746 mmHg 81%
    18:00 +10°C° 0 mm 2 m/s 747 mmHg 83%
    19:00 +10°C° 0 mm 2 m/s 747 mmHg 85%
    20:00 +9°C° 0 mm 3 m/s 748 mmHg 87%
    21:00 +9°C° 0 mm 3 m/s 748 mmHg 88%
    22:00 +8°C° 0 mm 2 m/s 748 mmHg 89%
    23:00 +8°C° 0 mm 2 m/s 748 mmHg 90%

    Demain, 16 Octobre, Mercredi

    Heure Température Précipitation Vent Pression Humidité
    00:00 +7°C° 0 mm 2 m/s 749 mmHg 90%
    01:00 +7°C° 0 mm 3 m/s 749 mmHg 90%
    02:00 +7°C° 0 mm 3 m/s 749 mmHg 91%
    03:00 +5°C° 0 mm 3 m/s 749 mmHg 90%
    04:00 +5°C° 0 mm 3 m/s 749 mmHg 90%
    05:00 +5°C° 0 mm 3 m/s 749 mmHg 89%
    06:00 +5°C° 0 mm 3 m/s 749 mmHg 87%
    07:00 +6°C° 0 mm 4 m/s 749 mmHg 85%
    08:00 +6°C° 0 mm 4 m/s 750 mmHg 83%
    09:00 +8°C° 0 mm 4 m/s 750 mmHg 80%
    10:00 +10°C° 0 mm 4 m/s 750 mmHg 77%
    11:00 +11°C° 0 mm 4 m/s 749 mmHg 74%
    12:00 +12°C° 0 mm 4 m/s 749 mmHg 73%
    13:00 +12°C° 0 mm 5 m/s 749 mmHg 72%
    14:00 +13°C° 0 mm 5 m/s 748 mmHg 71%
    15:00 +12°C° 0 mm 4 m/s 748 mmHg 75%
    16:00 +12°C° 0 mm 4 m/s 748 mmHg 79%
    17:00 +11°C° 0 mm 4 m/s 747 mmHg 82%
    18:00 +11°C° 0 mm 4 m/s 747 mmHg 83%
    19:00 +9°C° 0 mm 5 m/s 747 mmHg 84%
    20:00 +9°C° 0 mm 5 m/s 747 mmHg 84%
    21:00 +9°C° 0 mm 5 m/s 747 mmHg 84%
    22:00 +9°C° 0 mm 5 m/s 747 mmHg 84%
    23:00 +9°C° 0 mm 5 m/s 746 mmHg 83%

    Après-demain, 17 Octobre, Jeudi

    Heure Température Précipitation Vent Pression Humidité
    00:00 +8°C° 0 mm 5 m/s 746 mmHg 84%
    01:00 +8°C° 0 mm 5 m/s 746 mmHg 85%
    02:00 +8°C° 0 mm 5 m/s 746 mmHg 86%
    03:00 +8°C° 0 mm 5 m/s 746 mmHg 87%
    04:00 +8°C° 0 mm 5 m/s 745 mmHg 89%
    05:00 +8°C° 0 mm 5 m/s 745 mmHg 90%
    06:00 +8°C° 0 mm 5 m/s 745 mmHg 89%
    07:00 +9°C° 0 mm 5 m/s 745 mmHg 88%
    08:00 +10°C° 0 mm 5 m/s 744 mmHg 87%
    09:00 +12°C° 0 mm 5 m/s 744 mmHg 82%
    10:00 +13°C° 0 mm 5 m/s 744 mmHg 77%
    11:00 +15°C° 0 mm 5 m/s 744 mmHg 72%
    12:00 +16°C° 0 mm 5 m/s 744 mmHg 69%
    13:00 +17°C° 0 mm 4 m/s 744 mmHg 66%
    14:00 +18°C° 0 mm 4 m/s 744 mmHg 63%
    15:00 +17°C° 0 mm 4 m/s 743 mmHg 67%
    16:00 +16°C° 0 mm 3 m/s 743 mmHg 72%
    17:00 +13°C° 0 mm 3 m/s 743 mmHg 77%
    18:00 +13°C° 0 mm 3 m/s 743 mmHg 78%
    19:00 +13°C° 0 mm 3 m/s 743 mmHg 78%
    20:00 +13°C° 0 mm 3 m/s 743 mmHg 78%
    21:00 +13°C° 0.1 mm 3 m/s 743 mmHg 78%
    22:00 +13°C° 0.1 mm 3 m/s 743 mmHg 77%
    23:00 +13°C° 0.1 mm 3 m/s 743 mmHg 77%

    18 Octobre, Vendredi

    Heure Température Précipitation Vent Pression Humidité
    00:00 +13°C° 0.1 mm 2 m/s 742 mmHg 80%
    01:00 +13°C° 0.1 mm 2 m/s 742 mmHg 83%
    02:00 +12°C° 0.1 mm 2 m/s 742 mmHg 87%
    03:00 +12°C° 0 mm 2 m/s 742 mmHg 89%
    04:00 +10°C° 0 mm 2 m/s 742 mmHg 91%
    05:00 +10°C° 0 mm 3 m/s 742 mmHg 93%
    06:00 +10°C° 0 mm 3 m/s 743 mmHg 91%
    07:00 +10°C° 0 mm 3 m/s 743 mmHg 89%
    08:00 +11°C° 0 mm 3 m/s 743 mmHg 87%
    09:00 +12°C° 0 mm 3 m/s 744 mmHg 82%
    10:00 +13°C° 0 mm 3 m/s 744 mmHg 77%
    11:00 +14°C° 0 mm 3 m/s 744 mmHg 72%
    12:00 +14°C° 0 mm 3 m/s 745 mmHg 72%
    13:00 +14°C° 0 mm 3 m/s 745 mmHg 71%
    14:00 +14°C° 0 mm 3 m/s 745 mmHg 70%
    15:00 +13°C° 0 mm 3 m/s 745 mmHg 75%
    16:00 +12°C° 0 mm 4 m/s 746 mmHg 80%
    17:00 +11°C° 0 mm 4 m/s 746 mmHg 85%
    18:00 +10°C° 0 mm 4 m/s 746 mmHg 86%
    19:00 +8°C° 0 mm 4 m/s 746 mmHg 86%
    20:00 +8°C° 0 mm 4 m/s 747 mmHg 87%
    21:00 +9°C° 0 mm 3 m/s 747 mmHg 86%
    22:00 +8°C° 0 mm 3 m/s 747 mmHg 86%
    23:00 +8°C° 0 mm 3 m/s 747 mmHg 85%

    19 Octobre, Samedi

    Heure Température Précipitation Vent Pression Humidité
    00:00 +8°C° 0 mm 3 m/s 748 mmHg 84%
    01:00 +8°C° 0 mm 3 m/s 748 mmHg 84%
    02:00 +8°C° 0 mm 2 m/s 748 mmHg 83%
    03:00 +8°C° 0 mm 2 m/s 748 mmHg 83%
    04:00 +8°C° 0 mm 2 m/s 748 mmHg 83%
    05:00 +8°C° 0 mm 2 m/s 749 mmHg 83%
    06:00 +8°C° 0 mm 2 m/s 749 mmHg 83%
    07:00 +8°C° 0 mm 2 m/s 749 mmHg 82%
    08:00 +9°C° 0 mm 1 m/s 749 mmHg 82%
    09:00 +9°C° 0 mm 1 m/s 750 mmHg 80%
    10:00 +10°C° 0 mm 1 m/s 750 mmHg 79%
    11:00 +10°C° 0 mm 1 m/s 750 mmHg 77%
    12:00 +10°C° 0 mm 1 m/s 750 mmHg 75%
    13:00 +11°C° 0 mm 1 m/s 750 mmHg 73%
    14:00 +11°C° 0 mm 1 m/s 750 mmHg 72%
    15:00 +11°C° 0 mm 1 m/s 750 mmHg 75%
    16:00 +10°C° 0 mm 1 m/s 750 mmHg 79%
    17:00 +8°C° 0 mm 2 m/s 750 mmHg 83%
    18:00 +7°C° 0 mm 2 m/s 750 mmHg 85%
    19:00 +7°C° 0 mm 2 m/s 751 mmHg 87%
    20:00 +6°C° 0 mm 2 m/s 751 mmHg 88%
    21:00 +7°C° 0 mm 1 m/s 751 mmHg 89%
    22:00 +7°C° 0 mm 1 m/s 751 mmHg 90%
    23:00 +6°C° 0 mm 1 m/s 751 mmHg 91%

    20 Octobre, Dimanche

    Heure Température Précipitation Vent Pression Humidité
    00:00 +6°C° 0 mm 1 m/s 751 mmHg 92%
    01:00 +6°C° 0 mm 1 m/s 751 mmHg 92%
    02:00 +6°C° 0 mm 1 m/s 751 mmHg 92%
    03:00 +5°C° 0 mm 1 m/s 751 mmHg 93%
    04:00 +5°C° 0 mm 1 m/s 752 mmHg 93%
    05:00 +4°C° 0 mm 2 m/s 752 mmHg 94%
    06:00 +5°C° 0 mm 2 m/s 752 mmHg 92%
    07:00 +5°C° 0 mm 2 m/s 752 mmHg 90%
    08:00 +6°C° 0 mm 2 m/s 752 mmHg 88%
    09:00 +7°C° 0 mm 2 m/s 752 mmHg 83%
    10:00 +8°C° 0 mm 2 m/s 752 mmHg 77%
    11:00 +10°C° 0 mm 2 m/s 752 mmHg 72%
    12:00 +10°C° 0 mm 2 m/s 752 mmHg 70%
    13:00 +12°C° 0 mm 2 m/s 752 mmHg 68%
    14:00 +12°C° 0 mm 2 m/s 752 mmHg 67%
    15:00 +10°C° 0 mm 2 m/s 752 mmHg 72%
    16:00 +9°C° 0 mm 2 m/s 752 mmHg 77%
    17:00 +8°C° 0 mm 2 m/s 752 mmHg 82%
    18:00 +7°C° 0 mm 2 m/s 752 mmHg 85%
    19:00 +7°C° 0 mm 2 m/s 752 mmHg 87%
    20:00 +6°C° 0 mm 2 m/s 752 mmHg 89%
    21:00 +6°C° 0 mm 2 m/s 752 mmHg 89%
    22:00 +6°C° 0 mm 2 m/s 752 mmHg 89%
    23:00 +6°C° 0 mm 2 m/s 752 mmHg 89%
    Voir plus